Location: Doghouse Junction
(32.6003°N, 116.8411°W)
Time: 04:49:20
(UTC+00:00)

Daily predictions for brighter satellites

Satellite Brightness Start Highest point End
(mag) Time Altitude Azimuth Time Altitude Azimuth Time Altitude Azimuth
Cosmos 2221 Rocket 3.6 03:20:41 10° S 03:25:06 61° E 03:29:29 10° NNE
BREEZE-M DEB (TANK) 2.5 03:23:16 10° NNW 03:25:08 32° NE 03:28:15 10° ESE
FALCON 9 DEB 4.0 03:24:22 10° S 03:27:23 29° SE 03:30:23 10° ENE
Okean 2 Rocket 3.7 03:26:48 10° N 03:31:03 40° E 03:35:17 10° SSE
Cosmos 614 Rocket 4.1 03:30:01 10° NNW 03:35:14 84° WSW 03:40:27 10° SSE
Cosmos 1400 Rocket 3.4 03:31:49 10° N 03:35:26 37° E 03:39:01 10° SSE
Cosmos 2251 Rocket 4.0 03:31:24 10° NNW 03:36:38 64° WSW 03:41:51 10° S
Resurs 01 Rocket 3.3 03:34:11 10° ESE 03:37:12 18° ENE 03:40:14 10° NNE
Nadezhda 3 Rocket 4.3 03:32:20 10° SSW 03:38:25 71° W 03:44:34 10° N
Cosmos 2285 Rocket 4.3 03:32:44 10° S 03:38:49 47° E 03:44:56 10° NNE
Cosmos 2151 Rocket 4.2 03:36:34 10° N 03:40:40 38° E 03:44:46 10° SSE
Meteor 1-15 Rocket 4.3 03:35:28 10° N 03:41:25 80° E 03:47:18 10° S
PEGASUS R/B 4.3 03:39:28 10° SSE 03:42:09 67° WSW 03:46:29 10° NNW
Cosmos 2056 Rocket 3.5 03:38:00 10° SSW 03:43:09 88° WNW 03:48:25 10° NNE
Cosmos 2263 Rocket 3.2 03:39:08 10° N 03:44:09 31° ENE 03:48:33 12° ESE
Cosmos 2297 Rocket 4.2 03:42:56 10° NW 03:47:29 25° WSW 03:52:00 10° SSW
Lacrosse 5 3.9 03:45:15 10° N 03:48:26 16° NE 03:51:36 10° ENE
Cosmos 2227 Rocket 3.8 03:46:17 10° NW 03:51:14 32° WSW 03:56:11 10° SSW
Cosmos 1842 3.2 03:47:31 10° S 03:51:24 74° E 03:55:21 10° N
ERS-2 3.0 03:51:08 10° N 03:54:41 53° WNW 03:58:14 10° SSW
Cosmos 407 Rocket 3.5 03:49:27 10° NNW 03:54:44 71° ENE 03:59:32 12° SSE
Cosmos 1674 Rocket 3.5 03:51:27 10° S 03:55:51 75° E 04:00:14 10° N
Cosmos 1300 Rocket 3.8 03:52:16 10° NNW 03:56:33 70° W 04:00:51 10° S
Helios 1A Rocket 3.8 03:53:49 10° S 03:57:46 48° W 04:01:42 10° NNW
Genesis I 3.7 03:57:15 10° SW 04:01:00 61° WNW 04:04:51 10° NNE
Cosmos 1339 Rocket 4.4 03:54:51 10° S 04:01:03 74° E 04:07:11 10° N
Cosmos 1420 Rocket 3.9 03:56:16 10° SSW 04:01:25 86° ESE 04:06:38 10° NNE
Cosmos 1766 3.4 04:00:32 10° N 04:04:23 73° W 04:08:14 10° S
USA 186 3.8 04:02:22 10° SSW 04:04:29 21° W 04:06:45 10° NW
Cosmos 1190 Rocket 4.1 04:01:54 10° N 04:07:11 67° ENE 04:11:13 17° SSE
MOS 1 4.3 04:02:03 10° SSE 04:07:42 83° ENE 04:13:26 10° NNW
SJ-6B 3.9 04:06:57 10° S 04:10:53 44° W 04:14:48 10° NNW
Cosmos 1470 3.2 04:11:44 10° N 04:15:31 43° E 04:17:13 27° SE
KM-V1 3.9 04:13:16 10° WSW 04:15:55 60° S 04:18:59 18° E
Cosmos 1674 4.2 04:16:07 19° E 04:16:07 19° E 04:18:42 10° NE
SPOT 3 Rocket 3.9 04:14:38 21° SE 04:17:46 47° ENE 04:22:42 10° N
NOSS 3-2 (C) 4.5 04:17:31 10° SW 04:22:41 44° NW 04:28:29 10° NNE
OBJECT-B 3.3 04:20:50 10° SW 04:23:14 20° W 04:25:39 10° NW
ASTRO E2 3.4 04:20:15 10° SW 04:23:45 30° SSE 04:23:57 30° SSE
Aureole 2 Rocket 4.2 04:22:21 10° WNW 04:23:52 15° W 04:25:18 10° SW
CZ-2C R/B 3.8 04:22:25 10° NNE 04:27:09 60° E 04:30:28 19° S
Cosmos 1315 Rocket 3.1 04:23:45 10° N 04:27:47 50° E 04:29:13 33° SE
ATLAS 3B R/B 3.4 04:26:19 24° SE 04:28:27 28° ESE 04:33:55 10° NE
SL-16 R/B 2.5 04:24:37 10° SSW 04:30:13 68° WNW 04:35:53 10° NNE
Cosmos 2360 Rocket 2.4 04:26:52 15° S 04:31:25 49° ESE 04:36:51 10° NNE
Cosmos 2322 Rocket 2.2 04:27:09 10° SSW 04:32:50 85° WNW 04:38:34 10° NNE
Ariane Rocket 3.6 04:30:58 13° S 04:35:19 54° W 04:40:19 10° NNW
Resurs 1-3 4.5 04:32:41 14° S 04:36:12 45° W 04:40:26 10° NNW
Cosmos 1726 1.9 04:33:59 10° N 04:37:37 85° E 04:38:43 43° S
Delta 128 3.9 04:34:01 10° WSW 04:38:20 47° S 04:39:33 38° SE
Okean 1 Rocket 3.0 04:35:03 10° N 04:39:26 89° ENE 04:41:27 32° S
Cosmos 676 Rocket 4.0 04:34:35 10° NNW 04:39:57 80° ENE 04:42:30 32° SSE
Cosmos 1954 Rocket 4.0 04:35:21 10° NNW 04:40:42 84° ENE 04:43:14 32° SSE
Cosmos 1455 Rocket 4.3 04:38:30 10° NNE 04:42:14 26° ENE 04:42:32 26° E
Cosmos 2227 4.1 04:38:50 10° NNW 04:44:28 90° WSW 04:47:10 32° SSE
Cosmos 1758 3.2 04:42:25 10° N 04:46:21 67° E 04:47:05 53° SE
COSMOS 2428 4.4 04:48:51 17° E 04:48:51 17° E 04:51:21 10° ENE
Lacrosse 5 rocket 0.9 04:44:57 10° SW 04:48:44 89° SE 04:52:23 10° NE
BREEZE M DEB (TANK) 4.2 04:49:04 35° SE 04:49:37 36° ESE 04:59:45 10° NE
Cosmos 1707 3.8 04:48:44 15° SSW 04:51:39 43° W 04:55:21 10° N
Cosmos 2237 4.2 04:46:56 10° SSW 04:52:38 82° WNW 04:58:21 10° NNE
USA 81 3.9 04:49:03 10° N 04:54:20 81° E 04:56:25 38° S
Cosmos 1110 Rocket 3.9 04:55:36 36° S 04:57:39 68° ESE 05:02:48 10° NNE
USA 215 3.3 04:53:23 10° NE 04:59:42 50° SE 05:05:59 10° SSW
ATLAS 2A CENTAUR R/B 3.4 04:48:36 10° WSW 05:03:20 36° S 05:04:20 35° SSE
SPOT 5 3.4 05:09:16 42° E 05:09:56 45° ENE 05:14:44 10° N
Cosmos 2173 Rocket 4.2 05:04:44 10° N 05:11:00 57° E 05:12:37 45° SE
Resurs 01 Rocket 3.1 05:11:28 22° SW 05:13:25 31° W 05:17:20 10° NW
Cosmos 1953 2.7 05:10:02 10° N 05:13:34 53° NE 05:13:34 53° NE
Cosmos 1025 Rocket 3.0 05:14:15 64° ENE 05:14:15 64° ENE 05:18:24 10° NNE
Cosmos 1844 Rocket 3.5 05:09:51 10° N 05:15:03 36° ENE 05:15:57 34° E
CARTOSAT-1 3.4 05:16:30 77° E 05:16:34 77° ENE 05:20:54 10° N
Cosmos 1626 2.9 05:19:34 44° NNE 05:19:34 44° NNE 05:22:12 10° N
USA 245 3.8 05:17:47 57° SSW 05:18:33 69° W 05:23:46 10° NNW
Terra 2.6 05:20:33 37° ENE 05:20:33 37° ENE 05:24:48 10° N
BREEZE-M DEB (TANK) 4.4 05:23:20 10° WNW 05:25:06 17° NNW 05:27:25 10° NNE
Cosmos 1975 Rocket 4.1 05:23:52 31° SW 05:25:18 42° W 05:29:27 10° N
Cosmos 2263 Rocket 3.6 05:23:04 10° NW 05:27:55 30° WSW 05:30:15 22° SW
Cosmos 2333 4.1 05:27:12 50° SSW 05:28:49 87° ESE 05:34:34 10° NNE
SPOT 1/Viking Rocket 4.2 05:28:08 38° SW 05:29:32 48° W 05:34:30 10° NNW
Lacrosse 5 1.7 05:26:51 10° NW 05:31:55 81° SW 05:32:05 80° SSW
Cosmos 1461 4.2 05:29:38 10° N 05:32:40 30° NE 05:32:40 30° NE
Geosat 3.8 05:35:56 79° ESE 05:36:08 81° ENE 05:41:10 10° NNW
Cosmos 1850 Rocket 3.9 05:31:48 10° NNW 05:37:06 81° WSW 05:37:26 76° SSW
Cosmos 1802 Rocket 3.9 05:32:54 10° N 05:39:12 77° E 05:40:09 64° SE
Spot 2 Rocket 3.8 05:38:48 53° SW 05:39:24 57° W 05:44:24 10° NNW
Cosmos 2333 Rocket 2.1 05:38:37 66° SSW 05:39:28 87° ESE 05:45:14 10° NNE
ERS-1 Rocket 2.9 05:44:36 79° WSW 05:44:39 79° WSW 05:49:42 10° NNW
ATLAS CENTAUR R/B 3.6 05:44:11 10° N 05:47:04 19° NE 05:47:04 19° NE
ARIANE 5 R/B 3.5 05:51:18 42° W 05:51:18 42° W 05:55:18 10° NNW
Cosmos 2219 Rocket 2.1 05:52:52 78° SW 05:53:13 84° WNW 05:58:55 10° NNE
Cosmos 1459 Rocket 4.2 05:50:13 10° NNW 05:56:08 60° W 05:57:11 52° SW
Cosmos 1844 3.7 05:54:24 10° NNW 05:59:43 72° NE 05:59:43 72° NE
Meteor 1-24 Rocket 3.8 06:01:44 60° NE 06:01:44 60° NE 06:06:16 10° NNE
Cosmos 1302 Rocket 4.2 06:03:20 64° WNW 06:03:25 64° WNW 06:08:39 10° N
Cosmos 2237 Rocket 3.8 06:11:17 23° ENE 06:11:17 23° ENE 06:13:46 10° NE
Aureole 1 Rocket 4.4 06:05:32 10° NNW 06:11:56 69° WSW 06:12:58 61° SSW
Cosmos 2061 Rocket 4.0 06:07:41 10° N 06:14:06 72° W 06:14:32 69° WSW
ATLAS 3B R/B 3.6 06:13:22 13° WSW 06:18:48 43° NW 06:25:06 10° NNE
COSMOS 2428 3.4 06:30:48 47° W 06:31:19 48° WNW 06:36:53 10° N
Cosmos 1447 Rocket 4.5 06:33:30 77° NW 06:33:30 77° NW 06:39:24 10° N
Cosmos 2233 Rocket 4.0 06:30:18 10° N 06:35:58 75° NW 06:35:58 75° NW
NOSS 0 Rocket 4.1 06:41:11 68° NNE 06:41:11 68° NNE 06:46:34 10° NNE
USA 215 4.4 06:36:32 10° NNE 06:42:31 40° NW 06:48:30 10° WSW
Cosmos 2278 Rocket 3.4 06:43:11 10° N 06:47:35 33° NE 06:47:35 33° NE
ATLAS CENTAUR R/B 3.6 06:56:56 47° NE 06:56:56 47° NE 07:03:45 10° NE
Terra 4.1 06:59:26 16° WNW 06:59:26 16° WNW 07:01:21 10° NW
Cosmos 1844 Rocket 4.4 06:54:09 10° NW 06:57:36 24° W 06:57:36 24° W
GEOS 3 Rocket 4.4 07:01:29 50° N 07:01:29 50° N 07:05:39 10° NNW
Centaur D AC-28 3.9 07:05:38 59° SSW 07:07:07 65° SSE 08:17:31 10° E
USA 267 4.5 07:09:00 26° ENE 07:11:32 34° NE 07:17:18 10° NNW
Cosmos 1464 Rocket 4.3 07:14:30 10° N 07:19:50 63° NNE 07:19:50 63° NNE
ATLAS CENTAUR R/B 4.1 07:22:10 10° NW 07:23:12 16° NW 07:23:12 16° NW
SL-16 R/B 3.2 07:49:36 43° NNE 07:49:36 43° NNE 07:53:22 10° NNE
Cosmos 2237 Rocket 3.8 07:53:04 27° WNW 07:53:04 27° WNW 07:57:31 10° N
USA 229 DEB 4.4 07:56:00 39° ENE 07:56:00 39° ENE 08:00:25 10° NE
USA 229 4.5 07:56:07 39° ENE 07:56:07 39° ENE 08:00:30 10° NE
Cosmos 2034 Rocket 4.4 07:48:18 10° N 07:53:06 56° NNW 07:53:06 56° NNW
SJ 16-02 3.7 07:59:57 10° N 08:01:46 20° NNE 08:01:46 20° NNE
NOSS 3-1 (C) 4.1 08:06:16 43° NNE 08:06:16 43° NNE 08:10:12 10° NNE
NOSS 3-1 (A) 4.3 08:15:57 37° NE 08:15:57 37° NE 08:19:30 10° NE
Cosmos 2297 4.4 08:25:05 10° NNW 08:29:30 50° NNE 08:29:30 50° NNE
Cosmos 2278 Rocket 4.2 08:27:34 10° NW 08:29:24 18° WNW 08:29:24 18° WNW
ATLAS 5 CENTAUR R/B 4.0 08:44:46 48° SSE 08:44:46 48° SSE 09:19:33 10° ESE
USA 267 3.9 08:56:19 42° WNW 08:56:19 42° WNW 09:00:42 10° NW
Cosmos 540 Rocket 4.3 09:02:22 45° NE 09:02:22 45° NE 09:06:04 10° NNE
Cosmos 1943 3.5 09:05:01 62° NNE 09:05:01 62° NNE 09:09:42 10° NNE
Cosmos 1898 Rocket 4.4 09:02:36 10° N 09:07:30 43° ENE 09:07:30 43° ENE
Cosmos 1603 3.9 09:10:36 66° N 09:10:36 66° N 09:15:29 10° NNE
Cosmos 1943 Rocket 2.9 09:09:24 10° NNW 09:13:11 44° NW 09:13:11 44° NW
Cosmos 2279 Rocket 4.3 09:11:33 10° NNW 09:16:53 55° WNW 09:16:53 55° WNW
NPP 3.9 09:14:08 10° NNE 09:19:00 61° ENE 09:19:00 61° ENE
Resurs 1-4 Rocket 2.3 09:18:48 10° NNE 09:23:30 70° N 09:23:30 70° N
Cosmos 1570 Rocket 4.5 09:25:43 54° ENE 09:25:43 54° ENE 09:30:18 10° NNE
X-37B 4.1 09:25:42 10° N 09:25:42 10° N 09:26:02 10° N
USA 306 4.4 09:29:59 35° NE 09:29:59 35° NE 09:32:30 10° NE
CZ-2D R/B 2.2 09:28:34 10° N 09:33:11 66° NNW 09:33:11 66° NNW
Cosmos 2221 3.6 09:29:41 10° N 09:32:33 41° N 09:32:33 41° N
Meteor 2-2 Rocket 4.2 09:29:23 10° N 09:35:26 84° W 09:35:29 84° WSW
Cosmos 2208 Rocket 4.3 09:37:00 60° E 09:37:00 60° E 09:42:18 10° NNE
AQUA 4.1 09:34:41 10° NNE 09:38:49 66° NNE 09:38:49 66° NNE
Cosmos 2098 Rocket 3.9 09:41:14 61° WNW 09:41:14 61° WNW 09:46:09 10° N
ADEOS II 2.4 09:36:01 10° NNE 09:41:11 57° E 09:41:23 57° ESE
ARGOS Delta rocket 4.4 09:37:10 10° N 09:42:11 56° WNW 09:42:11 56° WNW
Nadezhda 4 Rocket 4.3 09:46:18 49° W 09:46:18 49° W 09:52:14 10° N
Cosmos 1606 4.1 09:43:24 10° N 09:45:54 37° NNE 09:45:54 37° NNE
Cosmos 2026 Rocket 4.0 09:47:20 59° SSE 09:48:29 75° E 09:54:46 10° N
SeaSat 1 3.3 09:45:08 10° NE 09:49:43 38° ESE 09:50:00 38° ESE
Cosmos 1242 Rocket 4.3 09:46:48 10° N 09:48:44 30° N 09:48:44 30° N
Cosmos 2369 Rocket 2.2 09:49:34 10° NNW 09:54:48 62° W 09:54:48 62° W
GPS 2-04 Rocket1 4.0 09:57:39 35° ENE 09:57:39 35° ENE 09:59:58 10° ENE
SL-16 R/B 2.4 09:56:35 64° SSW 09:57:24 72° WSW 10:03:36 10° NNW
IDEFIX/ARIANE 42P 3.4 09:55:25 10° NNE 10:00:24 43° E 10:01:45 36° SE
Cosmos 1656 Rocket 3.6 09:55:10 10° NNW 10:00:53 87° ENE 10:02:09 56° SSE
Cosmos 2263 4.0 09:57:07 10° NNW 10:02:46 78° WSW 10:03:22 70° SSW
CZ-4C R/B 3.8 10:04:44 16° SE 10:05:58 17° ESE 10:09:11 10° ENE
Cosmos 1633 4.3 10:11:12 24° NNW 10:11:12 24° NNW 10:12:55 10° N
ATLAS 5 CENTAUR R/B 2.0 10:11:02 46° NNW 10:11:02 46° NNW 10:14:30 10° NNE
USA 307 3.7 10:10:57 42° NW 10:10:57 42° NW 10:14:55 10° NNE
DELTA 2 R/B (1) 4.4 10:09:57 27° WNW 10:12:36 47° NNW 10:17:57 10° ENE
Meteor 2-15 Rocket 4.4 10:07:10 10° N 10:13:20 89° ENE 10:15:34 42° S
Meteor 2-15 4.4 10:10:07 10° NNW 10:16:11 66° W 10:17:32 51° SSW
Landsat 4 4.4 10:12:59 10° N 10:15:55 45° NNW 10:15:55 45° NNW
ATLAS 2A CENTAUR R/B 4.0 10:19:08 23° SE 10:19:08 23° SE 10:22:25 10° E
BREEZE-M DEB (TANK) 4.3 10:17:42 38° SSE 10:18:07 38° SSE 10:21:26 10° ENE
Helios 1B rocket 4.1 10:16:14 10° NNW 10:18:44 22° NW 10:18:44 22° NW
Cosmos 1932 4.3 10:15:53 10° NNW 10:22:05 80° WSW 10:26:25 21° SSE
Cosmos 1092 Rocket 4.5 10:23:35 38° WSW 10:24:32 41° W 10:30:16 10° N
Cosmos 2292 Rocket 3.6 10:25:58 46° N 10:25:58 46° N 10:28:09 10° N
USA 308 4.1 10:26:06 30° WNW 10:26:40 31° NW 10:30:29 10° NNE
ADEOS Rocket 3.4 10:22:03 26° S 10:26:45 80° WSW 10:33:47 10° NNW
Meteor 2-3 Rocket 3.6 10:26:23 48° SSW 10:27:59 80° W 10:33:36 10° N
Aureole 3 Rocket 3.7 10:25:27 10° NNW 10:29:30 46° W 10:29:33 46° W
IRS-1D 3.7 10:27:18 10° N 10:32:17 56° WNW 10:33:18 47° WSW
CZ-4C R/B 4.0 10:33:07 29° SE 10:34:28 45° ENE 10:37:46 10° N
CBERS-1 4.0 10:30:57 10° N 10:36:02 67° WNW 10:37:28 46° SW
Cosmos 1782 3.8 10:33:48 10° N 10:37:39 45° E 10:40:08 20° SE
Cosmos 1655 Rocket 4.3 10:33:36 21° SSE 10:37:45 62° E 10:43:52 10° NNE
ASTEX 1 3.8 10:36:42 20° SSE 10:40:06 62° E 10:44:59 10° N
H-2A R/B 2.8 10:40:56 31° S 10:40:56 31° S 10:49:52 10° ESE
Lacrosse 4 Rocket 2.3 10:41:03 10° NNW 10:44:58 46° ENE 10:48:50 10° SE
IRS-P3 4.1 10:41:32 10° NNE 10:46:53 85° ESE 10:49:37 30° S
MSX 3.8 10:44:27 10° NNE 10:50:15 85° WNW 10:53:24 28° SSW
Meteor 1-26 Rocket 4.3 10:46:31 10° N 10:52:24 89° W 10:57:50 13° S
Cosmos 1933 3.6 10:51:34 10° NNW 10:55:31 49° W 10:56:17 43° SW
Alouette 2 Rocket 3.8 10:54:37 10° N 10:58:14 64° E 11:02:49 10° SSE
Cosmos 1271 Rocket 3.7 10:54:46 10° N 10:58:21 44° E 11:01:57 10° SSE
Cosmos 2298 Rocket 4.1 10:53:39 10° NNW 10:59:00 81° ENE 11:04:19 10° SSE
ERBS 2.4 11:02:15 47° W 11:02:46 55° NW 11:05:57 10° NNE
X-37B 4.1 11:02:55 10° N 11:03:08 10° N 11:03:21 10° NNE
Cosmos 2150 Rocket 3.9 11:06:31 10° NNW 11:11:44 83° WSW 11:17:00 10° SSE
BREEZE-M DEB (TANK) 3.3 11:02:57 10° NW 11:11:47 62° SW 11:14:45 10° SSE
Meteor 2-16 Rocket 4.4 11:08:34 18° SSW 11:13:14 75° W 11:19:22 10° N
CZ-2D R/B 3.3 11:12:17 10° N 11:16:28 83° WNW 11:19:10 20° SSW
Delta 2 Rocket 3.1 11:15:05 31° SW 11:16:49 68° SSE 11:20:23 10° ENE
Cosmos 1500 Rocket 4.2 11:15:45 10° S 11:19:58 53° E 11:24:11 10° NNE
ADEOS II 4.0 11:17:32 10° NNW 11:20:19 15° WNW 11:22:19 12° W
CZ-2C R/B 2.7 11:17:15 10° NNE 11:22:10 66° ESE 11:26:53 10° S
Cosmos 1743 Rocket 4.1 11:19:02 10° S 11:23:17 57° E 11:27:36 10° NNE
Cosmos 1862 3.4 11:21:32 22° SSW 11:23:59 60° W 11:27:59 10° N
SeaSat 1 3.9 11:23:08 10° N 11:26:57 23° WNW 11:29:47 14° W
Cosmos 1125 Rocket 3.4 11:22:17 10° NNW 11:27:31 73° WSW 11:32:46 10° S
Intelsat 5-2 Rocket 4.2 11:25:57 19° SSW 11:27:34 27° SSE 11:33:19 10° ESE
CZ-2C R/B 3.1 11:26:21 11° S 11:27:41 13° SSE 11:29:15 10° ESE
SL-08 R/B 3.2 11:23:11 10° S 11:27:48 80° WSW 11:32:30 10° NNW
Cosmos 1328 Rocket 3.6 11:26:08 10° NNW 11:30:24 56° W 11:34:41 10° S
ARIANE 5 R/B 3.0 11:26:18 10° N 11:31:01 43° WNW 11:34:32 17° SW
S3M 4.1 11:26:20 10° NNW 11:32:20 55° W 11:38:23 10° SSW
Cosmos 2084 Rocket 3.3 11:30:54 18° SSW 11:33:48 78° ESE 11:37:44 10° NNE
deb Kosmos-1763 4.0 11:32:19 19° SSW 11:34:38 64° WNW 11:38:08 10° N
GPS 2-04 Rocket1 3.3 11:31:51 10° WNW 11:35:40 51° N 11:39:18 10° ENE
IDEFIX/ARIANE 42P 4.2 11:36:02 10° NNW 11:39:34 19° WNW 11:42:33 12° WSW
Meteor 2-6 Rocket 4.3 11:36:50 10° NNW 11:42:41 74° W 11:48:22 10° S
CZ-4B R/B 4.4 11:40:10 10° N 11:44:51 34° WNW 11:48:59 12° SW
NOSS 3-4 (A) 4.1 11:39:38 10° S 11:45:08 47° ESE 11:50:49 10° NE
NOSS 3-4 (C) 4.2 11:39:46 10° S 11:45:15 47° ESE 11:50:56 10° NE
SAR-Lupe-3 4.5 11:43:34 10° N 11:47:11 82° WNW 11:50:45 10° SSW
Cosmos 1484 Rocket 3.8 11:47:00 10° NNE 11:50:33 43° E 11:54:06 10° S
USA 281 3.8 11:45:50 10° S 11:51:42 35° WSW 11:57:37 10° NW
Sich 1 4.0 11:48:39 10° SSE 11:52:51 50° E 11:57:06 10° NNE
CZ-4C R/B 2.6 11:49:56 13° WSW 11:53:49 39° NW 11:58:52 10° NNE
Tianhe-1 1.0 11:52:45 13° WSW 11:55:27 85° NNW 11:58:37 10° ENE
